Flag for Turkey Weather past 2 weeks in Gaziantep, Turkey

Now
73 °F

Clear.


Feels Like: 77 °F
Forecast: 71 / 102 °F
Wind: No wind

Location: Gaziantep Airport

Current Time: Aug 2, 2015 at 5:31:29 AM

Latest Report: Aug 2, 2015 at 4:50 AM


Visibility: 10 mi

Pressure: 29.86 "Hg (27.05 "Hg at 856m altitude)

Humidity: 53%

Dew point: 55 °F

Location of GaziantepLocation

Historic Weather in Gaziantep — Graph

°F

Gaziantep temperature yesterday

Maximum temperature yesterday: 93 °F (at 2:20 PM)
Minimum temperature yesterday: 66 °F (at 4:50 AM)
Average temperature yesterday: 82 °F

Past Weeks' High & Low Weather Summary

 TemperatureHumidityPressure
High104 °F (Jul 22, 1:50 PM)83% (Jul 31, 4:50 AM)29.89 "Hg (Jul 31, 4:50 AM)
Low61 °F (Jul 26, 4:20 AM)6% (Jul 19, 12:50 PM)29.62 "Hg (Jul 21, 5:20 PM)
Average87 °F30%29.74 "Hg
* Reported Jul 18 4:20 AM — Aug 2 4:20 AM, Gaziantep, Weather by CustomWeather, © 2015

Note: Actual official high and low records may vary slightly from our data, if they occured in-between our weather recording intervals... More about our weather records

Advertising

Gaziantep weather history for previous 24 hours

 ConditionsComfort  
Time TempWeatherWind HumidityBarometerVisibility
4:20 AM
Sun, Aug 2
79 °FPassing clouds.5 mph42%29.83 "HgN/A
3:50 AM77 °FClear.5 mph47%29.83 "Hg10 mi
3:20 AM81 °FPassing clouds.7 mph39%29.83 "HgN/A
2:50 AM77 °FPassing clouds.7 mph47%29.83 "HgN/A
2:20 AM79 °FClear.7 mph45%29.83 "Hg10 mi
1:50 AM77 °FClear.2 mph47%29.83 "Hg10 mi
1:20 AM79 °FClear.2 mph45%29.83 "Hg10 mi
12:20 AM81 °FPassing clouds.6 mph42%29.83 "HgN/A
11:50 PM
Sat, Aug 1
77 °FClear.2 mph44%29.83 "Hg10 mi
11:20 PM82 °FPassing clouds.3 mph35%29.83 "HgN/A
10:50 PM82 °FClear.5 mph35%29.83 "Hg10 mi
10:20 PM82 °FPassing clouds.7 mph32%29.83 "HgN/A
9:50 PM81 °FClear.No wind34%29.83 "Hg10 mi
9:20 PM82 °FClear.7 mph30%29.83 "Hg10 mi
8:50 PM84 °FClear.10 mph29%29.83 "Hg10 mi
8:20 PM86 °FSunny.9 mph27%29.83 "Hg10 mi
7:50 PM88 °FSunny.13 mph29%29.80 "Hg10 mi
7:20 PM88 °FPassing clouds.9 mph35%29.80 "HgN/A
6:50 PM90 °FPassing clouds.9 mph36%29.80 "HgN/A
5:50 PM91 °FScattered clouds.14 mph28%29.80 "HgN/A
5:20 PM91 °FScattered clouds.18 mph32%29.80 "HgN/A
4:50 PM93 °FScattered clouds.15 mph26%29.80 "HgN/A
4:20 PM93 °FScattered clouds.12 mph26%29.80 "HgN/A
3:50 PM93 °FScattered clouds.12 mph26%29.80 "HgN/A
3:20 PM93 °FScattered clouds.9 mph24%29.80 "HgN/A
2:50 PM93 °FScattered clouds.12 mph26%29.80 "HgN/A
2:20 PM93 °FScattered clouds.12 mph26%29.80 "HgN/A
1:50 PM91 °FScattered clouds.5 mph30%29.83 "HgN/A
1:20 PM91 °FPassing clouds.8 mph30%29.83 "HgN/A
12:50 PM91 °FPassing clouds.7 mph30%29.83 "HgN/A
12:20 PM90 °FSunny.7 mph31%29.83 "Hg10 mi
11:50 AM88 °FSunny.8 mph33%29.83 "Hg10 mi
11:20 AM88 °FPassing clouds.5 mph33%29.86 "HgN/A
10:50 AM88 °FSunny.5 mph35%29.86 "Hg10 mi
10:20 AM86 °FSunny.3 mph40%29.86 "Hg10 mi
9:50 AM84 °FSunny.3 mph45%29.86 "Hg10 mi
9:20 AM84 °FPassing clouds.7 mph45%29.83 "HgN/A
8:50 AM84 °FSunny.No wind45%29.83 "Hg10 mi
8:20 AM81 °FSunny.1 mph54%29.83 "Hg10 mi
7:50 AM79 °FSunny.No wind58%29.83 "Hg10 mi
7:20 AM75 °FSunny.No wind61%29.83 "Hg10 mi
6:50 AM72 °FSunny.No wind69%29.80 "Hg10 mi
6:20 AM68 °FClear.No wind73%29.80 "Hg10 mi
5:50 AM68 °FClear.No wind73%29.80 "Hg10 mi
5:20 AM68 °FClear.No wind73%29.80 "Hg10 mi
Weather by CustomWeather, © 2015

See weather overviewHow to use our weather pages